Find Starlink 35816

NORAD ID: 66499 Int'l Des: 2025-263 Owner: SPXS Country: US Constellation: starlink operational
LEOCIRCULAR

現在のビュー

3D地球を読み込み中...

About Starlink 35816

Starlink 35816 (NORAD 66499) is a starlink constellation satellite (v2 mini) launched Nov 15, 2025 by SPXS of US. It operates in LEO, CIRCULAR orbit with a mass of 575.00 kg.

次回通過

Passes for default location (London). Set your location on the main map for personalized predictions.

高度履歴

Loading altitude history...

軌道要素

1 66499U 25263Q 26229.20374807 .00010981 00000-0 40786-3 0 9991
2 66499 42.9995 164.5299 0000736 223.8594 136.2199 15.27588701 43449
Epoch: Aug 17, 2026 • Age: 43 hours

現在のステータス

高度 482.8 km
遠地点 / 近地点 N/A
速度 7.63 km/s
衛星直下点 -3.24°S, 9.51°E
打ち上げ日 Nov 15, 2025
運用期間 0.7 years
タイプ internet

技術仕様

分類 Payload
質量 575.00 kg
乾燥質量 530.00 kg
総質量 575.00 kg
長さ 0.30 m
直径 4.10 m
スパン 29.00 m
形状 Box + pan
製造者 SPXS
バスタイプ Starlink V2MO
フェーズステータス In Orbit
所有者/国 SPXS/US

Most Searched